Regional Weather Roundup
Issued by NWS

Home | Current Version | Previous Version | Graphics & Text | Print | Product List | Glossary On
Versions: 1 2 3 4 5 6 7 8 9 10 11 12 13 14 15 16 17 18 19 20 21 22 23 24 25 26 27 28 29 30 31 32 33 34 35 36 37 38 39 40 41 42 43 44 45 46 47 48 49 50
000
ASUS43 KBIS 171310
RWRND

NORTH DAKOTA REGIONAL WEATHER ROUNDUP
NATIONAL WEATHER SERVICE BISMARCK ND
800 AM CDT WED SEP 17 2014

NOTE: "FAIR" INDICATES FEW OR NO CLOUDS BELOW 12,000 FEET WITH NO
SIGNIFICANT WEATHER AND/OR OBSTRUCTIONS TO VISIBILITY.


NDZ001>003-009>011-017-171400-
NORTHWEST NORTH DAKOTA

CITY           SKY/WX    TMP DP  RH WIND       PRES   REMARKS
WILLISTON      PTCLDY    41  37  86 CALM      29.96R
MINOT          CLEAR     43  38  82 N6        29.96R
MINOT AFB      CLEAR     46  43  90 N1        29.96R
$$

NDZ018>021-031>035-040>046-171400-
SOUTHWEST NORTH DAKOTA

CITY           SKY/WX    TMP DP  RH WIND       PRES   REMARKS
BISMARCK       CLEAR     37  37 100 CALM      29.96R
DICKINSON      MOCLDY    46  42  86 CALM      29.95R
GARRISON         N/A     40  38  93 NW5       29.95R
HETTINGER ARPT PTCLDY    40  38  93 CALM      29.97R
$$

NDZ004>008-012>016-024-026-027-054-171400-
NORTHEAST NORTH DAKOTA

CITY           SKY/WX    TMP DP  RH WIND       PRES   REMARKS
GRAND FORKS    PTCLDY    44  41  89 NW6       29.95R
GRND FRKS AFB  CLEAR     44  44  99 N8        29.96R
DEVILS LAKE    CLEAR     45  37  76 CALM      29.94R
$$

NDZ022-023-025-028>030-036>039-047>053-171400-
SOUTHEAST NORTH DAKOTA

CITY           SKY/WX    TMP DP  RH WIND       PRES   REMARKS
FARGO          CLEAR     47  44  90 N10       29.93R
JAMESTOWN      CLEAR     44  41  89 CALM      29.94R
$$




USA.gov is the U.S. government's official web portal to all federal, state and local government web resources and services.